• In Deutschland
  • Länderverzeichnis
  • Für 7 Tage
  • Wassertemperatur
  • Satellitenkarten
  • Wetterkarte
  • Widgets
  • user-avatar
    Anmelden

    Stündliche Wetter Uige

    Heute, 17 Januar, Mittwoch

    Zeit Temperatur Niederschläge Wind Luftdruck Luftfeuchtigkeit
    00:00 +19°C° 0 mm 0 m/S 690 mmHg 93%
    01:00 +19°C° 0 mm 0 m/S 690 mmHg 93%
    02:00 +18°C° 0 mm 0 m/S 690 mmHg 93%
    03:00 +18°C° 0 mm 0 m/S 690 mmHg 93%
    04:00 +18°C° 0 mm 0 m/S 690 mmHg 93%
    05:00 +19°C° 0 mm 0 m/S 690 mmHg 93%
    06:00 +19°C° 0 mm 0 m/S 691 mmHg 92%
    07:00 +20°C° 0 mm 0 m/S 691 mmHg 91%
    08:00 +21°C° 0 mm 0 m/S 691 mmHg 87%
    09:00 +22°C° 0 mm 0 m/S 691 mmHg 83%
    10:00 +23°C° 0 mm 0 m/S 692 mmHg 79%
    11:00 +27°C° 0,5 mm 1 m/S 691 mmHg 73%
    12:00 +29°C° 0,5 mm 1 m/S 691 mmHg 66%
    13:00 +31°C° 0,5 mm 1 m/S 691 mmHg 60%
    14:00 +30°C° 2 mm 1 m/S 690 mmHg 70%
    15:00 +28°C° 2 mm 1 m/S 689 mmHg 80%
    16:00 +27°C° 2 mm 1 m/S 688 mmHg 89%
    17:00 +25°C° 1 mm 1 m/S 689 mmHg 91%
    18:00 +24°C° 1 mm 1 m/S 689 mmHg 93%
    19:00 +23°C° 1 mm 1 m/S 689 mmHg 95%
    20:00 +22°C° 0,6 mm 1 m/S 690 mmHg 95%
    21:00 +22°C° 0,6 mm 1 m/S 690 mmHg 96%
    22:00 +22°C° 0,6 mm 1 m/S 691 mmHg 96%
    23:00 +22°C° 0,1 mm 1 m/S 691 mmHg 97%

    Morgen, 18 Januar, Donnerstag

    Zeit Temperatur Niederschläge Wind Luftdruck Luftfeuchtigkeit
    00:00 +22°C° 0,1 mm 1 m/S 691 mmHg 97%
    01:00 +22°C° 0,1 mm 1 m/S 690 mmHg 98%
    02:00 +22°C° 0,3 mm 1 m/S 690 mmHg 98%
    03:00 +22°C° 0,3 mm 1 m/S 690 mmHg 98%
    04:00 +22°C° 0,3 mm 1 m/S 690 mmHg 98%
    05:00 +22°C° 0,1 mm 1 m/S 690 mmHg 98%
    06:00 +22°C° 0,1 mm 1 m/S 691 mmHg 98%
    07:00 +22°C° 0,1 mm 1 m/S 691 mmHg 98%
    08:00 +21°C° 0,2 mm 2 m/S 691 mmHg 97%
    09:00 +23°C° 0,2 mm 2 m/S 692 mmHg 95%
    10:00 +23°C° 0,2 mm 2 m/S 692 mmHg 94%
    11:00 +24°C° 0,1 mm 2 m/S 691 mmHg 88%
    12:00 +25°C° 0,1 mm 2 m/S 691 mmHg 83%
    13:00 +26°C° 0,1 mm 2 m/S 691 mmHg 77%
    14:00 +26°C° 0,2 mm 2 m/S 690 mmHg 76%
    15:00 +26°C° 0,2 mm 2 m/S 690 mmHg 75%
    16:00 +27°C° 0,2 mm 2 m/S 689 mmHg 74%
    17:00 +25°C° 0,2 mm 2 m/S 689 mmHg 80%
    18:00 +24°C° 0,2 mm 1 m/S 690 mmHg 87%
    19:00 +22°C° 0,2 mm 1 m/S 690 mmHg 94%
    20:00 +22°C° 0 mm 1 m/S 690 mmHg 95%
    21:00 +21°C° 0 mm 1 m/S 691 mmHg 96%
    22:00 +21°C° 0 mm 1 m/S 691 mmHg 98%
    23:00 +21°C° 0 mm 1 m/S 691 mmHg 98%

    übermorgen, 19 Januar, Freitag

    Zeit Temperatur Niederschläge Wind Luftdruck Luftfeuchtigkeit
    00:00 +21°C° 0 mm 1 m/S 691 mmHg 98%
    01:00 +21°C° 0 mm 1 m/S 690 mmHg 98%
    02:00 +21°C° 0 mm 1 m/S 690 mmHg 98%
    03:00 +21°C° 0 mm 1 m/S 690 mmHg 97%
    04:00 +21°C° 0 mm 1 m/S 690 mmHg 97%
    05:00 +21°C° 0 mm 1 m/S 690 mmHg 97%
    06:00 +21°C° 0 mm 1 m/S 691 mmHg 97%
    07:00 +21°C° 0 mm 1 m/S 691 mmHg 96%
    08:00 +22°C° 0 mm 1 m/S 691 mmHg 92%
    09:00 +23°C° 0 mm 1 m/S 692 mmHg 87%
    10:00 +24°C° 0 mm 2 m/S 692 mmHg 82%
    11:00 +24°C° 0,4 mm 2 m/S 692 mmHg 83%
    12:00 +25°C° 0,4 mm 2 m/S 691 mmHg 83%
    13:00 +25°C° 0,4 mm 2 m/S 691 mmHg 84%
    14:00 +25°C° 0,6 mm 2 m/S 690 mmHg 84%
    15:00 +25°C° 0,6 mm 2 m/S 690 mmHg 84%
    16:00 +25°C° 0,6 mm 2 m/S 690 mmHg 84%
    17:00 +23°C° 0,3 mm 2 m/S 690 mmHg 88%
    18:00 +22°C° 0,3 mm 1 m/S 690 mmHg 91%
    19:00 +21°C° 0,3 mm 1 m/S 690 mmHg 95%
    20:00 +21°C° 0 mm 1 m/S 691 mmHg 95%
    21:00 +19°C° 0 mm 0 m/S 691 mmHg 96%
    22:00 +18°C° 0 mm 0 m/S 691 mmHg 97%
    23:00 +18°C° 0 mm 0 m/S 691 mmHg 97%

    20 Januar, Samstag

    Zeit Temperatur Niederschläge Wind Luftdruck Luftfeuchtigkeit
    00:00 +18°C° 0 mm 0 m/S 690 mmHg 97%
    01:00 +18°C° 0 mm 0 m/S 690 mmHg 97%
    02:00 +17°C° 0 mm 0 m/S 690 mmHg 97%
    03:00 +17°C° 0 mm 0 m/S 690 mmHg 98%
    04:00 +17°C° 0 mm 0 m/S 690 mmHg 98%
    05:00 +17°C° 0 mm 0 m/S 690 mmHg 98%
    06:00 +18°C° 0 mm 0 m/S 690 mmHg 97%
    07:00 +18°C° 0 mm 0 m/S 691 mmHg 96%
    08:00 +22°C° 0 mm 1 m/S 691 mmHg 86%
    09:00 +25°C° 0 mm 1 m/S 692 mmHg 76%
    10:00 +27°C° 0 mm 1 m/S 692 mmHg 65%
    11:00 +28°C° 0,1 mm 2 m/S 692 mmHg 63%
    12:00 +28°C° 0,1 mm 2 m/S 691 mmHg 61%
    13:00 +29°C° 0,1 mm 2 m/S 690 mmHg 59%
    14:00 +28°C° 0,6 mm 2 m/S 690 mmHg 67%
    15:00 +27°C° 0,6 mm 2 m/S 689 mmHg 75%
    16:00 +26°C° 0,6 mm 2 m/S 689 mmHg 83%
    17:00 +25°C° 0,3 mm 1 m/S 689 mmHg 88%
    18:00 +24°C° 0,3 mm 1 m/S 689 mmHg 92%
    19:00 +22°C° 0,3 mm 1 m/S 689 mmHg 96%
    20:00 +22°C° 0,1 mm 1 m/S 690 mmHg 97%
    21:00 +21°C° 0,1 mm 1 m/S 690 mmHg 97%
    22:00 +21°C° 0,1 mm 1 m/S 691 mmHg 97%
    23:00 +21°C° 0 mm 1 m/S 691 mmHg 97%

    21 Januar, Sonntag

    Zeit Temperatur Niederschläge Wind Luftdruck Luftfeuchtigkeit
    00:00 +18°C° 0 mm 0 m/S 690 mmHg 97%
    01:00 +18°C° 0 mm 0 m/S 690 mmHg 97%
    02:00 +18°C° 0 mm 0 m/S 690 mmHg 97%
    03:00 +18°C° 0 mm 0 m/S 690 mmHg 97%
    04:00 +20°C° 0 mm 1 m/S 690 mmHg 98%
    05:00 +20°C° 0 mm 1 m/S 690 mmHg 98%
    06:00 +20°C° 0 mm 1 m/S 691 mmHg 97%
    07:00 +21°C° 0 mm 1 m/S 691 mmHg 97%
    08:00 +23°C° 0 mm 1 m/S 691 mmHg 87%
    09:00 +26°C° 0 mm 1 m/S 692 mmHg 76%
    10:00 +28°C° 0 mm 1 m/S 692 mmHg 66%
    11:00 +29°C° 0,3 mm 1 m/S 692 mmHg 63%
    12:00 +30°C° 0,3 mm 2 m/S 691 mmHg 60%
    13:00 +30°C° 0,3 mm 2 m/S 690 mmHg 57%
    14:00 +30°C° 0,4 mm 2 m/S 690 mmHg 61%
    15:00 +29°C° 0,4 mm 2 m/S 689 mmHg 65%
    16:00 +29°C° 0,4 mm 2 m/S 689 mmHg 68%
    17:00 +27°C° 0,5 mm 1 m/S 689 mmHg 77%
    18:00 +25°C° 0,5 mm 1 m/S 689 mmHg 85%
    19:00 +23°C° 0,5 mm 1 m/S 689 mmHg 93%
    20:00 +22°C° 0,1 mm 1 m/S 690 mmHg 95%
    21:00 +22°C° 0,1 mm 1 m/S 690 mmHg 96%
    22:00 +21°C° 0,1 mm 1 m/S 691 mmHg 97%
    23:00 +21°C° 0 mm 1 m/S 690 mmHg 98%

    22 Januar, Montag

    Zeit Temperatur Niederschläge Wind Luftdruck Luftfeuchtigkeit
    00:00 +20°C° 0 mm 1 m/S 690 mmHg 98%
    01:00 +20°C° 0 mm 1 m/S 690 mmHg 98%
    02:00 +20°C° 0 mm 1 m/S 690 mmHg 98%
    03:00 +19°C° 0 mm 1 m/S 690 mmHg 98%
    04:00 +19°C° 0 mm 1 m/S 690 mmHg 98%
    05:00 +19°C° 0 mm 1 m/S 690 mmHg 98%
    06:00 +20°C° 0 mm 1 m/S 691 mmHg 97%
    07:00 +20°C° 0 mm 1 m/S 691 mmHg 96%
    08:00 +22°C° 0 mm 1 m/S 691 mmHg 87%
    09:00 +24°C° 0 mm 1 m/S 692 mmHg 77%
    10:00 +26°C° 0 mm 1 m/S 692 mmHg 67%
    11:00 +28°C° 0,1 mm 1 m/S 692 mmHg 63%
    12:00 +29°C° 0,1 mm 2 m/S 691 mmHg 58%
    13:00 +30°C° 0,1 mm 2 m/S 690 mmHg 53%
    14:00 +30°C° 0,2 mm 2 m/S 690 mmHg 56%
    15:00 +29°C° 0,2 mm 2 m/S 689 mmHg 60%
    16:00 +29°C° 0,2 mm 2 m/S 689 mmHg 63%
    17:00 +27°C° 0,7 mm 1 m/S 689 mmHg 73%
    18:00 +25°C° 0,7 mm 1 m/S 689 mmHg 83%
    19:00 +22°C° 0,7 mm 1 m/S 689 mmHg 92%
    20:00 +22°C° 0,1 mm 1 m/S 690 mmHg 94%
    21:00 +21°C° 0,1 mm 1 m/S 690 mmHg 95%
    22:00 +21°C° 0,1 mm 1 m/S 690 mmHg 97%
    23:00 +21°C° 0 mm 1 m/S 690 mmHg 97%
    Mehr zeigen